sat.trackr.live / text

‹ back to catalog

HULIANWANG DIGUI-13

NORAD 62973 · 2025-030C

PAYLOAD ACTIVE UNKNOWN

§ Identity

Operator
Country
PRC
Launch date
2025-02-11
Launch site
WSC
Launch vehicle
Mass (kg)
RCS (m²)

External: N2YO · Heavens-Above · Gunter

§ Orbital elements

Epoch: 2026-09-22T21:14:30.221664Z

Period
108.33 min
Inclination
50.0016°
Eccentricity
0.0000481
Mean motion
13.29327201 rev/d
Perigee alt
1,148.9 km
Apogee alt
1,149.7 km
Semi-major
7,527.4 km
B*
6.2342e-5
RAAN
245.4154°
Arg perigee
36.5822°
Mean anomaly
323.5083°
Rev number
7,885

§ Raw data

HULIANWANG DIGUI-131 62973U 25030C   26265.88507201 -.00000095  00000+0  62342-4 0  99942 62973  50.0016 245.4154 0000481  36.5822 323.5083 13.29327201 78857

JSON: /api/v1/satellites/62973 · /tle

For live sub-satellite position, see the globe view (requires WebGL).

§ Visibility from observer

Set your observer location to see the next 7 days of passes ≥ 10°. The values pass through the URL so the page stays shareable.

No JS? Fill the form by hand. The geolocation button needs JavaScript.